Dewpoint
70 72 71 72 73 73 73 73 73 73 73 73 73 73 73 73 72 72 74 73 73 74 75 75 76 75 74 75 74 75 75 74 73 74 74 73 73 72 72 72 71 70 71 70 69 69 69 68 68 68 69 68 67 66 65 68 68 67 68 67 65 66 65 64 62 62 65 65 64 63 66 66 65 66 65 64 66 68 68 68 69 67 66 66 66
71 71 71 71 72 72 72 72 72 72 72 72 73 72 73 73 73 73 73 74 74 73 75 74 75 75 74 75 75 75 75 75 73 73 74 73 73 72 71 72 71 71 71 71 70 69 69 69 68 68 69 68 67 66 66 65 66 65 66 65 64 66 66 64 63 62 62 66 65 67 65 66 64 68 65 64 63 65 66 68 68 67 67 67 65
68 71 71 72 72 72 71 72 72 72 72 71 71 71 72 73 73 73 72 72 74 74 74 74 75 76 75 75 76 76 76 75 74 74 74 73 73 71 71 71 71 70 70 70 70 69 69 69 68 68 68 67 68 67 66 66 66 66 66 66 66 65 67 67 65 63 62 63 66 64 65 67 64 65 67 66 67 67 67 67 65 67 69 68 66
67 70 71 71 71 72 72 72 71 70 70 70 70 70 70 71 72 72 72 71 72 74 74 75 75 76 75 76 76 76 76 75 75 74 74 74 73 73 72 71 71 70 70 70 69 69 68 69 67 67 68 67 68 67 67 67 67 67 67 68 67 66 68 68 67 65 64 62 66 64 65 64 65 66 67 68 65 67 67 68 69 68 68 67 67
66 68 69 69 69 71 70 70 70 70 70 69 70 69 69 70 71 71 71 71 72 73 74 75 75 76 74 75 75 75 75 75 75 74 74 74 73 72 72 72 71 71 70 70 69 69 69 68 68 68 68 67 68 67 67 68 67 67 66 67 67 67 68 67 68 67 65 64 64 66 67 66 65 66 67 65 66 67 69 69 68 67 67 65 63
65 67 67 67 69 70 70 70 70 70 69 69 69 69 69 70 70 71 71 71 72 72 73 74 74 75 75 75 75 75 75 75 75 74 73 73 73 72 72 72 71 71 71 70 70 70 69 69 68 69 68 67 67 67 68 68 67 67 66 67 67 67 68 68 68 68 67 65 65 64 67 64 65 66 67 68 65 65 67 68 67 68 68 66 64
67 66 66 66 69 69 69 70 70 69 70 70 70 70 70 69 70 70 71 71 71 71 72 73 74 74 75 75 74 75 75 75 75 75 74 74 73 73 72 72 71 71 71 70 69 69 69 68 69 69 68 68 67 67 68 67 67 67 67 67 68 68 67 67 68 68 67 66 65 65 64 65 66 64 67 67 67 66 65 65 64 66 67 65 65
67 68 67 68 69 69 69 71 71 71 71 72 72 71 70 70 71 72 72 71 71 71 71 72 73 74 74 74 75 75 75 75 75 75 74 74 73 73 72 72 71 71 71 70 69 68 68 68 67 68 68 68 68 68 69 68 68 67 68 67 67 68 66 67 67 66 66 66 64 63 64 64 65 66 67 67 66 65 65 64 63 63 65 67 66
68 67 68 69 70 71 71 71 72 73 73 73 73 72 72 72 72 72 73 72 71 71 71 71 73 73 73 74 74 74 74 74 74 74 74 74 73 72 72 72 71 71 70 69 69 69 68 68 67 66 68 68 67 67 67 67 68 68 68 68 68 68 67 67 66 66 65 65 64 65 64 64 63 64 64 65 64 64 67 65 64 64 64 64 65
69 68 68 70 72 72 72 73 73 74 73 74 74 74 72 72 72 72 73 72 72 73 73 72 72 73 73 73 74 74 73 73 69 64 66 73 73 72 72 72 71 71 71 70 69 68 68 67 67 67 66 67 68 67 65 65 65 66 67 68 67 67 67 67 66 65 65 64 62 62 61 61 61 64 63 64 66 67 65 65 64 63 64 63 64
67 67 68 70 71 72 73 73 73 73 74 74 74 74 73 73 73 74 74 73 73 74 73 72 72 72 72 72 73 73 73 72 64 63 63 65 71 73 72 72 72 71 70 70 70 69 68 68 68 67 66 66 68 65 65 64 65 64 65 66 67 67 67 66 65 65 65 63 62 63 61 61 62 63 64 62 63 64 63 64 64 62 61 62 61
65 69 70 72 72 73 72 73 73 73 73 74 74 74 73 73 73 74 74 73 74 74 73 73 73 73 72 72 72 73 73 66 62 62 62 62 65 72 72 71 71 71 70 70 70 69 69 68 68 69 68 67 67 67 66 64 64 64 64 64 64 65 65 67 66 66 65 63 63 63 62 63 63 64 61 60 63 64 65 64 64 62 62 62 62
68 70 70 71 72 73 73 73 73 73 74 73 74 74 74 74 74 74 73 74 74 74 74 73 73 73 73 73 72 72 72 65 62 61 62 61 62 66 72 72 71 70 70 70 70 70 70 69 69 69 69 67 67 68 68 68 64 63 63 64 64 64 63 63 66 67 66 66 64 64 64 63 63 63 64 64 65 64 63 61 63 63 63 62 60
68 68 71 72 73 73 73 73 73 73 74 74 74 74 74 74 73 73 73 74 74 74 73 73 73 74 73 73 73 73 73 65 61 60 60 60 61 63 71 72 71 71 71 71 70 71 71 70 70 69 69 68 68 68 68 68 68 67 67 67 66 66 65 64 64 65 67 65 65 64 66 66 64 65 66 66 65 64 62 61 63 61 61 60 62
68 69 71 71 72 73 73 73 73 74 74 74 74 74 74 74 73 73 73 73 73 73 73 73 72 73 73 73 73 73 72 64 60 60 59 58 60 61 71 72 72 72 72 71 71 71 71 71 71 70 70 69 69 68 68 69 68 68 68 67 67 67 66 64 63 63 64 64 65 64 65 66 66 67 67 66 65 65 63 63 64 62 62 62 61
68 69 71 71 72 73 73 73 73 74 74 74 74 73 74 74 74 74 74 73 73 73 74 73 72 73 73 72 72 72 72 62 60 59 58 58 59 66 70 71 71 71 72 71 71 71 71 71 71 71 70 69 67 64 66 69 68 68 67 66 66 66 66 67 63 63 67 64 64 62 61 66 65 67 66 64 64 65 63 62 63 62 60 58 55
68 70 70 70 72 72 73 73 73 73 73 73 73 73 74 74 74 74 74 74 73 73 72 72 73 73 73 72 72 72 72 65 59 58 57 57 59 68 70 71 71 71 71 71 71 71 71 71 71 70 70 69 65 61 62 66 68 67 66 66 65 64 65 66 63 62 59 59 59 60 59 59 59 59 59 60 66 63 61 59 58 54 55 55 54
70 71 71 72 73 73 73 73 73 73 73 73 73 73 74 74 74 74 73 73 73 72 73 72 72 72 72 72 72 71 71 65 57 56 56 56 61 69 70 70 70 70 70 71 71 71 71 68 69 70 70 70 61 59 60 65 67 66 66 65 64 64 64 64 64 65 59 59 59 59 59 59 59 58 57 57 57 61 61 59 56 53 53 53 53
70 70 71 72 73 73 73 72 72 73 73 73 73 73 74 74 74 75 74 73 73 73 72 72 72 72 72 72 67 69 72 66 56 56 56 55 62 70 71 71 70 71 70 70 71 70 70 68 65 68 68 68 59 59 59 63 67 67 66 65 64 64 64 64 64 64 65 64 64 62 61 60 62 62 62 59 59 61 59 58 56 54 52 52 49
71 71 70 72 72 73 74 73 73 73 73 73 74 74 74 74 74 74 73 73 73 72 72 71 71 72 71 72 72 72 72 73 63 55 55 55 57 70 71 71 70 70 70 70 70 70 70 70 66 61 61 60 57 56 57 59 66 67 66 64 64 64 64 65 65 64 64 62 62 61 61 61 61 61 61 59 57 59 59 58 56 55 54 51 48
72 72 72 71 72 73 73 73 73 73 73 74 74 74 74 74 73 73 72 72 72 73 73 72 71 72 71 72 72 72 72 73 66 54 54 54 56 62 71 71 71 70 71 70 69 69 69 69 69 61 58 57 56 55 55 57 62 67 66 65 65 66 64 65 64 64 63 63 63 62 61 61 60 58 55 55 54 55 56 57 55 55 52 50 47
72 72 73 72 72 73 74 74 74 73 74 74 74 74 73 73 73 73 72 73 72 73 73 72 72 72 72 72 73 73 70 67 71 56 55 54 55 57 69 71 71 71 70 70 70 69 69 69 69 62 57 56 55 53 54 56 59 66 67 59 57 59 65 64 63 63 63 62 61 60 60 57 52 51 52 52 52 55 54 53 52 51 51 48 50
72 73 73 72 73 73 74 74 73 72 73 73 73 73 74 74 74 74 74 73 73 73 73 73 72 72 72 72 72 72 73 71 65 63 54 54 53 55 60 67 63 71 70 70 70 69 70 69 68 58 56 54 52 52 53 55 58 65 55 54 56 59 62 63 63 63 62 61 61 61 57 53 52 51 52 52 53 55 52 52 53 53 54 52 52
73 73 73 73 73 73 74 72 72 72 73 74 74 74 74 74 74 74 74 73 72 72 72 73 73 71 71 72 72 72 73 74 65 60 59 54 54 54 56 60 61 69 71 70 70 70 69 69 66 55 53 50 50 51 53 55 62 52 52 54 57 60 63 64 63 63 63 61 61 59 56 53 52 53 53 55 53 59 57 56 57 55 56 54 54
72 72 71 72 73 73 73 73 73 73 73 73 74 74 74 74 73 74 74 73 73 72 72 71 72 72 72 72 73 72 73 73 71 62 58 55 55 54 55 58 58 61 70 71 71 69 63 60 55 53 52 50 50 52 53 55 52 51 52 55 60 63 64 62 62 63 62 62 59 56 54 55 55 55 58 59 60 60 60 57 57 57 56 55 54
72 72 72 73 72 72 73 73 73 73 74 73 73 74 73 73 73 73 73 73 73 72 73 72 72 72 73 72 72 72 73 73 71 67 60 58 57 55 55 57 59 60 66 69 63 61 57 55 54 52 51 52 57 60 61 60 54 54 55 58 62 62 63 62 63 62 62 60 55 53 52 53 55 58 61 61 59 56 58 58 56 54 53 52 51
72 72 72 71 72 72 72 70 70 71 73 72 73 73 73 74 73 74 74 73 73 72 72 72 72 71 71 71 71 72 72 72 71 68 66 64 63 61 59 61 58 59 66 66 60 61 58 58 56 55 56 55 59 58 58 55 57 58 61 62 63 63 63 63 63 63 62 57 54 52 53 54 58 59 58 58 58 58 59 58 54 51 51 50 50
72 72 72 73 72 72 72 72 71 71 73 73 72 73 73 73 73 73 72 72 72 71 71 71 70 70 70 71 72 70 70 70 71 69 67 66 65 64 62 64 64 67 67 65 64 62 61 54 54 58 59 60 61 60 59 60 60 60 61 61 61 62 62 63 63 64 62 58 54 56 56 58 56 54 55 55 55 57 58 55 53 50 48 49 48
74 74 75 74 74 73 73 73 72 72 73 74 73 74 73 72 73 73 73 73 73 71 71 70 71 70 70 71 72 69 69 69 69 64 67 62 64 62 63 64 65 67 62 59 62 61 59 59 59 59 60 60 60 60 60 60 60 61 60 60 60 60 61 60 61 61 61 59 57 57 54 54 53 54 53 53 57 56 58 56 54 52 51 48 43
72 71 71 71 71 72 71 71 72 71 69 70 72 72 71 64 69 73 73 67 60 55 54 69 74 73 74 75 74 72 70 70 62 58 56 54 55 56 57 58 59 63 57 56 59 60 60 60 60 60 60 60 59 59 59 59 59 58 58 58 59 59 60 60 60 59 59 56 56 53 54 53 53 54 53 53 57 55 54 52 53 52 49 45 43
69 69 69 68 69 69 69 70 70 70 70 69 70 71 71 73 61 57 58 58 55 51 51 50 51 55 70 73 72 63 63 60 54 52 50 50 51 52 53 54 53 52 52 59 61 61 60 60 60 60 60 59 59 59 58 57 58 58 57 57 58 59 59 59 59 58 56 55 56 54 54 53 53 53 53 53 54 53 50 48 49 50 46 43 42
68 68 69 69 69 70 70 71 70 71 71 71 70 71 70 70 72 64 58 57 56 53 51 51 51 53 54 62 68 72 60 53 50 50 49 49 50 50 50 50 50 50 51 55 61 61 60 60 60 60 60 59 58 58 58 58 59 58 58 58 58 58 58 58 58 57 55 54 53 54 54 53 53 54 53 53 52 49 48 48 46 45 45 43 42
66 67 67 68 68 68 68 69 70 70 69 69 69 70 70 70 70 69 69 57 52 52 52 51 51 51 52 53 56 61 56 51 50 50 49 49 49 49 50 48 48 49 52 60 62 61 61 60 60 60 59 59 59 59 59 59 59 59 59 59 58 58 57 59 59 57 55 54 54 53 54 54 53 54 53 52 49 48 47 46 45 45 44 42 44
67 67 66 67 66 66 67 67 67 67 67 67 67 67 67 67 67 67 67 67 68 60 52 49 49 50 50 52 54 54 52 51 50 50 48 48 48 48 48 51 48 49 56 63 62 61 61 61 60 60 59 59 59 59 60 60 60 59 59 58 58 57 58 60 59 56 54 55 54 53 55 54 54 55 53 50 47 46 46 43 44 45 43 42 40
66 66 65 65 66 66 66 66 65 66 67 67 67 66 65 66 65 65 65 65 65 65 65 67 57 48 54 54 52 52 51 49 48 48 48 48 48 47 48 52 53 58 61 63 62 61 61 60 60 59 60 60 60 60 60 60 60 59 58 58 57 57 58 57 55 55 54 55 55 55 55 55 56 54 50 48 46 44 44 43 42 42 42 41 40
65 65 64 64 64 65 65 65 65 67 67 66 65 65 65 64 64 63 62 63 63 63 63 66 67 59 50 49 51 51 50 48 47 47 47 47 47 48 55 56 59 61 62 62 62 62 61 61 59 60 60 61 60 60 61 60 60 59 59 57 57 56 56 55 56 57 58 57 56 56 55 56 54 50 47 46 47 45 43 43 42 41 41 40 40
65 65 65 65 65 65 65 65 65 64 63 64 64 65 65 64 64 63 63 63 63 63 63 62 63 61 54 54 50 48 47 47 47 47 47 46 47 57 60 61 61 61 61 61 61 61 61 61 62 62 62 61 61 60 60 60 60 61 58 59 58 57 56 57 58 59 58 57 56 58 56 53 50 47 44 45 43 43 41 41 40 40 40 40 40
65 65 65 65 65 66 66 66 65 63 65 64 64 65 64 64 64 63 63 63 61 61 59 57 53 57 55 52 52 51 50 47 46 45 45 48 56 61 61 61 61 61 60 61 60 59 60 60 62 62 61 60 61 60 60 61 60 60 60 61 61 60 57 57 58 60 59 56 55 55 52 48 47 46 44 43 42 41 40 41 39 39 40 41 38
64 61 60 61 62 66 66 66 65 65 65 64 64 63 62 62 62 62 63 62 60 58 57 56 54 52 54 54 52 51 49 50 51 53 56 60 61 61 61 61 61 61 60 60 60 60 60 61 62 61 61 60 60 60 60 59 60 59 60 59 58 57 56 55 58 58 54 52 51 50 48 47 46 46 44 41 40 41 41 39 39 38 38 38 38
65 65 62 61 64 64 66 66 65 65 64 63 63 63 63 63 62 62 62 61 60 58 56 57 56 55 54 55 54 53 52 54 57 59 60 60 60 60 61 60 60 59 59 59 59 59 59 59 60 60 61 61 60 59 60 60 59 59 59 56 55 54 54 54 54 53 51 49 48 48 47 47 46 44 43 41 41 41 43 40 39 39 38 37 38
64 64 64 61 62 63 64 65 64 63 63 63 62 62 62 62 62 62 62 61 60 59 58 56 55 55 54 50 51 53 58 58 59 59 59 59 60 60 60 60 59 59 59 59 59 59 59 59 59 60 59 59 59 59 59 58 58 57 56 54 53 52 52 53 52 51 50 49 48 47 48 47 46 44 43 43 43 43 41 40 40 39 39 39 37
64 64 64 63 63 63 62 62 62 63 63 63 62 62 62 62 62 62 61 61 60 60 59 57 56 55 52 48 48 50 57 59 59 59 59 60 60 60 60 60 60 59 59 59 59 59 59 59 59 58 58 58 58 58 57 57 56 55 53 52 53 52 52 50 50 51 50 49 48 48 47 46 46 44 43 43 43 42 40 39 40 39 39 38 38
65 65 65 64 64 64 62 62 63 63 62 61 61 61 61 62 62 61 61 61 60 59 59 58 56 56 56 51 52 52 58 58 59 59 59 59 59 59 59 60 60 60 60 60 59 59 59 58 58 58 58 58 58 57 57 56 55 52 52 52 52 51 50 49 50 51 50 49 48 48 47 46 44 44 43 43 42 41 41 42 40 39 39 39 38
64 64 64 64 64 64 64 63 63 63 62 62 62 62 63 62 62 62 60 59 58 57 57 57 57 57 57 55 55 56 58 58 58 58 58 58 58 59 59 60 59 59 59 59 59 59 58 58 58 58 59 58 58 58 57 55 54 52 52 52 51 51 50 50 50 50 48 48 47 47 46 45 45 43 43 42 42 41 41 42 40 39 39 38 37
63 63 63 63 63 64 63 64 63 63 62 62 63 63 62 62 61 60 59 59 58 57 56 57 58 58 58 58 59 59 58 58 58 58 58 59 58 59 59 59 59 59 59 59 59 59 59 58 58 58 58 57 57 57 55 55 54 54 52 52 52 50 50 51 50 50 49 49 47 45 45 45 45 43 42 42 42 41 39 40 40 42 38 38 36
62 62 61 61 62 62 62 63 63 63 63 63 63 62 61 61 61 60 60 59 58 58 57 58 58 58 59 59 60 59 59 59 59 59 58 58 58 58 58 58 58 58 58 58 59 59 59 58 58 58 58 57 57 55 55 55 54 55 55 53 52 51 51 51 51 51 50 50 46 45 44 44 44 43 42 43 41 40 39 40 41 39 38 36 36
61 61 60 61 61 61 62 63 63 63 63 62 62 62 61 61 60 60 59 59 59 59 58 58 57 57 58 58 58 58 58 58 59 58 58 58 58 57 56 57 57 57 58 58 59 59 59 59 58 58 57 56 56 55 54 54 54 53 54 53 52 53 52 52 53 51 50 49 48 45 44 43 42 44 43 41 40 40 40 39 39 39 38 35 34
60 60 60 60 59 59 60 61 62 62 62 62 62 62 61 62 62 61 60 58 58 58 58 58 59 57 57 57 57 57 57 57 58 58 58 57 57 56 57 57 57 57 57 58 58 58 59 59 59 58 57 56 55 54 54 53 53 53 53 54 54 52 53 51 54 53 50 50 48 46 46 44 42 41 41 42 40 39 40 37 37 35 35 35 36
59 59 59 59 58 58 58 58 59 58 59 60 61 61 61 61 62 61 61 60 60 59 59 58 58 58 56 57 56 56 57 57 58 57 56 56 56 56 56 57 57 56 56 57 57 58 59 59 59 58 57 56 55 55 54 54 52 52 52 52 51 45 43 45 47 51 46 49 46 44 44 42 42 42 41 41 40 39 37 37 36 34 34 35 35
55 56 57 58 58 58 59 59 58 59 59 59 60 61 61 61 60 60 60 60 60 59 59 59 58 58 58 58 58 56 55 56 57 58 56 56 56 56 56 56 56 56 56 56 56 57 58 58 59 58 57 57 56 55 53 52 52 51 51 52 41 39 39 41 43 43 44 45 44 44 41 41 41 39 37 36 37 37 35 34 34 34 33 35 37
52 51 52 52 54 56 57 58 58 58 59 59 59 59 59 59 59 59 59 59 59 59 59 59 58 59 59 58 57 58 56 56 56 58 57 56 56 56 56 56 55 55 56 56 56 56 57 57 57 57 57 56 55 54 52 51 51 51 46 39 37 37 38 40 44 38 40 42 43 41 39 38 38 37 36 35 36 36 36 35 35 35 34 35 37